Weather History for South Bend, IN

Change the Weather History Date:

Saturday, June 23, 2012

  Actual Average Record
Temperature  
Mean Temperature 73 °F 71 °F  
Max Temperature 86 °F 82 °F 97 °F (1930)
Min Temperature 59 °F 61 °F 37 °F (1918)
Degree Days  
Heating Degree Days 0 1  
Month to date heating degree days 29 40  
Since 1 June heating degree days 29 40  
Since 1 July heating degree days 5103 6294  
Cooling Degree Days 8 7  
Month to date cooling degree days 157 112  
Year to date cooling degree days 315 168  
Since 1 June cooling degree days 157 112  
Growing Degree Days 22 (Base 50)    
Moisture  
Dew Point 54 °F    
Average Humidity 58    
Maximum Humidity 84    
Minimum Humidity 31    
Precipitation  
Precipitation 0.00 in 0.13 in 2.04 in (1931)
Month to date precipitation 0.78 2.98  
Year to date precipitation 12.08 16.70  
Snow  
Snow 0.00 in - - ()
Month to date snowfall 0.0  
Snow Depth 0.00 in    
Sea Level Pressure  
Sea Level Pressure 30.02 in    
Wind  
Wind Speed 3 mph (NNE)    
Max Wind Speed 12 mph    
Max Gust Speed 16 mph    
Visibility 10 miles    
Events      
T = Trace of Precipitation, MM = Missing Value Source: NWS Daily Summary

Daily Weather History Graph

Daily Weather History Graph

Search for Another Location

Airport:

Trip Planner

Search our weather history database for the weather conditions in past years. The results will help you decide how hot, cold, wet, or windy it might be!

Date:

Astronomy

Jun. 23, 2012 Rise Set
Actual Time 6:11 AM EDT 9:23 PM EDT
Civil Twilight 5:37 AM EDT 9:57 PM EDT
Nautical Twilight 4:53 AM EDT 10:41 PM EDT
Astronomical Twilight 4:00 AM EDT 11:34 PM EDT
Moon 10:16 AM EDT (6/23) 11:47 PM EDT (6/23)
Length of Visible Light 16h 20m
Length of Day
15h 12m
Waxing Crescent, 16% of the Moon is Illuminated
Jun 23
Waxing Crescent
Jun 26
First Quarter
Jul 3
Full
Jul 10
Last Quarter
Jul 19
New

Hourly Weather History & Observations

Time (EDT) Temp. Heat Index Dew Point Humidity Pressure Visibility Wind Dir Wind Speed Gust Speed Precip Events Conditions
12:54 AM 64.0 °F - 54.0 °F 70% 30.00 in 10.0 mi ESE 3.5 mph - N/A   Clear
1:54 AM 63.0 °F - 54.0 °F 72% 30.00 in 10.0 mi Calm Calm - N/A   Clear
2:54 AM 61.0 °F - 54.0 °F 78% 30.01 in 10.0 mi Calm Calm - N/A   Mostly Cloudy
3:54 AM 60.1 °F - 55.0 °F 83% 30.01 in 10.0 mi Calm Calm - N/A   Clear
4:54 AM 61.0 °F - 55.0 °F 81% 30.01 in 10.0 mi Calm Calm - N/A   Mostly Cloudy
5:54 AM 62.1 °F - 55.0 °F 78% 30.01 in 10.0 mi Calm Calm - N/A   Partly Cloudy
6:54 AM 62.1 °F - 55.9 °F 80% 30.02 in 10.0 mi East 3.5 mph - N/A   Partly Cloudy
7:54 AM 66.0 °F - 55.9 °F 70% 30.03 in 10.0 mi ESE 4.6 mph - N/A   Clear
8:54 AM 71.1 °F - 55.0 °F 57% 30.04 in 10.0 mi ESE 4.6 mph - N/A   Clear
9:54 AM 75.0 °F - 54.0 °F 48% 30.04 in 10.0 mi Variable 3.5 mph - N/A   Clear
10:54 AM 77.0 °F - 52.0 °F 42% 30.04 in 10.0 mi SSE 4.6 mph - N/A   Clear
11:54 AM 79.0 °F - 53.1 °F 40% 30.05 in 10.0 mi Calm Calm - N/A   Clear
12:54 PM 82.0 °F 81.2 °F 53.1 °F 37% 30.04 in 10.0 mi SSW 4.6 mph - N/A   Clear
1:54 PM 82.9 °F - 48.0 °F 29% 30.03 in 10.0 mi WNW 6.9 mph - N/A   Partly Cloudy
2:54 PM 82.9 °F - 50.0 °F 32% 30.03 in 10.0 mi Calm Calm - N/A   Clear
3:54 PM 84.9 °F - 50.0 °F 30% 30.01 in 10.0 mi WNW 5.8 mph - N/A   Clear
4:54 PM 84.0 °F - 51.1 °F 32% 30.02 in 10.0 mi West 6.9 mph - N/A   Clear
5:54 PM 82.0 °F 81.2 °F 53.1 °F 37% 30.00 in 10.0 mi North 6.9 mph - N/A   Clear
6:54 PM 82.0 °F 81.2 °F 53.1 °F 37% 30.00 in 10.0 mi NW 4.6 mph - N/A   Clear
7:54 PM 81.0 °F 80.7 °F 55.0 °F 41% 30.01 in 10.0 mi NNW 3.5 mph - N/A   Clear
8:54 PM 78.1 °F - 55.9 °F 46% 30.01 in 10.0 mi NNE 4.6 mph - N/A   Clear
9:54 PM 75.0 °F - 55.0 °F 50% 30.02 in 10.0 mi NNE 3.5 mph - N/A   Clear
10:54 PM 73.9 °F - 57.0 °F 55% 30.03 in 10.0 mi Calm Calm - N/A   Clear
11:54 PM 72.0 °F - 59.0 °F 64% 30.03 in 10.0 mi Calm Calm - N/A   Clear